[[{"header":{"parameterUnit":"m.s-1","parameterCategory":1,"la1":30.2991,"la2":30.254,"lo1":-89.0895,"lo2":-89.0444,"dy":0.0017,"dx":0.0017,"nx":28,"ny":28,"refTime":"2023-04-17T15:00:00:Z","depth":0,"parameterNumber":2,"parameterNumberName":"U-component_of_WINDS"},"data":[0,0,0,0,0,0,0,0,0,0,0,0,0,0,0,0,0,0,0,0,0,0,0,0,0,0,0,0,0,0,0,0,0,0,0,0,0,0,0,0,0,0,0,0,0,0,0,0,0,0,0,0,0,0,0,0,0,0,0.9167,0.9168,0,0.9224,0.9224,0.9225,0.9234,0.9234,0.9233,0.9233,0.929,0.9292,0.9294,0,0,0,0,0,0,0,0,0,0,0,0,0,0.9068,0.907,0.9167,0.9168,0.9169,0.9223,0.9224,0.9225,0.9234,0.9234,0.9233,0.9233,0.929,0.9292,0.9295,0,0,0,0,0,0,0,0,0,0,0,0,0,0.9117,0.9071,0.9167,0.918,0.9182,0.9223,0.9224,0.9225,0.9234,0.9234,0.9233,0.9232,0.9289,0.9292,0.9295,0.9328,0,0,0.9304,0.9305,0,0,0,0,0,0,0,0,0.9114,0.912,0.9177,0.9179,0.9181,0.9221,0.9211,0.926,0.9235,0.9214,0.9233,0.9232,0.9268,0.9273,0.9285,0.933,0.9333,0.9304,0.9306,0.9307,0.9308,0,0,0,0,0,0,0,0.911,0.9118,0.9189,0.9178,0.918,0.9183,0.9189,0.922,0.9245,0.9216,0.9217,0.9223,0.9269,0.9282,0.9286,0.9334,0.9304,0.9307,0.9309,0.931,0.9411,0.9411,0,0,0,0,0,0,0.9105,0.9115,0.9188,0.9191,0.9145,0.9185,0.9192,0.9209,0.9244,0.9249,0.9224,0.9224,0.9277,0.9283,0.9288,0.933,0.9307,0.931,0.9312,0.941,0.9411,0.9412,0,0,0,0,0,0,0.9103,0.9111,0.9185,0.9153,0.9163,0.9188,0.9207,0.921,0.9224,0.925,0.9255,0.9233,0.9277,0.9284,0.9318,0.9332,0.9311,0.9314,0.9409,0.941,0.9411,0.9412,0,0,0,0,0,0,0.91,0.911,0.9123,0.9154,0.9165,0.9214,0.9208,0.9212,0.9229,0.9229,0.926,0.9264,0.9277,0.9314,0.9321,0.9336,0.9316,0.9407,0.9409,0.9411,0.9411,0.9414,0.9416,0,0,0,0,0,0.9096,0.9121,0.9123,0.9132,0.9181,0.9215,0.9221,0.9235,0.923,0.9243,0.926,0.9263,0.9329,0.9317,0.9326,0.9341,0.9407,0.9409,0.9411,0.941,0.9413,0.9416,0,0,0,0,0,0,0.909,0.9125,0.9128,0.9163,0.9186,0.9216,0.9233,0.9238,0.9263,0.9262,0.9278,0.9285,0.9319,0.9333,0.9319,0.9375,0.9368,0.9371,0.9364,0.9367,0.9369,0.9365,0.9319,0,0,0,0,0,0.9093,0.9118,0.9147,0.9175,0.9186,0.9208,0.9223,0.9232,0.9256,0.9266,0.9286,0.9309,0.9336,0.9352,0.9378,0.9414,0.9421,0.9429,0.9431,0.9433,0.9435,0.9456,0.946,0.9418,0.9418,0.9418,0,0,0.9099,0.9121,0.9136,0.9174,0.9193,0.9218,0.9216,0.9242,0.9262,0.927,0.9303,0.9319,0.9346,0.9382,0.9398,0.9395,0.9449,0.9435,0.9436,0.9438,0.9459,0.9463,0.9466,0.942,0.9419,0.9419,0,0,0.9123,0.9142,0.9168,0.9187,0.9216,0.923,0.9236,0.9266,0.9277,0.9311,0.9318,0.9341,0.9386,0.9405,0.9421,0.9454,0.9458,0.9462,0.9473,0.9493,0.9497,0.95,0.9512,0.9516,0.9465,0.9465,0.9465,0,0.9127,0.9165,0.9181,0.9207,0.9225,0.9234,0.9261,0.9279,0.9314,0.9326,0.9322,0.9379,0.9398,0.9438,0.9446,0.9459,0.9467,0.9458,0.9495,0.9498,0.9501,0.9513,0.9517,0.9465,0.9465,0.9465,0.9465,0,0.9169,0.9195,0.9213,0.9247,0.9267,0.9293,0.9313,0.9331,0.9338,0.9353,0.9388,0.9412,0.9443,0.9453,0.9461,0.9495,0.9492,0.9491,0.9484,0.9505,0.9516,0.9521,0.9466,0.9465,0.9465,0.9465,0,0,0.9189,0.9233,0.9239,0.9255,0.9288,0.9309,0.9337,0.9367,0.9382,0.9407,0.943,0.9469,0.9468,0.9486,0.9497,0.9514,0.9539,0.9511,0.9512,0.9516,0.9579,0.9579,0.9584,0.9543,0.9544,0.9544,0.9577,0,0.9217,0.9266,0.9281,0.9322,0.9348,0.9358,0.9382,0.9405,0.942,0.9444,0.9461,0.9488,0.9485,0.9496,0.9514,0.9532,0.9552,0.953,0.9565,0.9566,0.9557,0.959,0.959,0.9619,0.9581,0.9582,0.9583,0,0.9255,0.9281,0.9325,0.9356,0.9367,0.9388,0.9418,0.944,0.9467,0.9477,0.9498,0.9507,0.9536,0.9528,0.9569,0.9554,0.9569,0.9581,0.9582,0.9585,0.9575,0.9594,0.9629,0.9633,0.959,0.9589,0.9589,0,0.9266,0.9312,0.9344,0.9357,0.9394,0.9409,0.9425,0.9451,0.9469,0.9495,0.9507,0.9536,0.9552,0.9575,0.9592,0.9584,0.9632,0.9624,0.9641,0.964,0.965,0.9649,0.9688,0.966,0.966,0.966,0.966,0,0.9295,0.9321,0.9349,0.9369,0.9399,0.9417,0.9447,0.9463,0.9487,0.951,0.9521,0.9543,0.9564,0.9589,0.9603,0.9635,0.9643,0.9652,0.9655,0.965,0.9649,0.966,0.9658,0.9661,0.9661,0.9661,0.9661,0,0.9312,0.9331,0.9367,0.9399,0.9408,0.9429,0.9457,0.9477,0.9493,0.9522,0.953,0.9556,0.9586,0.9605,0.9644,0.9653,0.9688,0.9691,0.9679,0.9681,0.9696,0.9694,0.9743,0.975,0.9718,0.9718,0.9719,0,0.9328,0.9349,0.9384,0.9401,0.9417,0.9443,0.9462,0.9481,0.9499,0.9532,0.9548,0.9579,0.9605,0.9652,0.9674,0.9704,0.9707,0.9723,0.9712,0.9707,0.9708,0.9706,0.9708,0.9724,0.9724,0.9724,0.9724,0,0.9357,0.9366,0.9392,0.9421,0.9443,0.9467,0.9492,0.9505,0.9528,0.9549,0.958,0.96,0.9639,0.967,0.9702,0.9719,0.9726,0.9728,0.9733,0.9729,0.9721,0.9725,0.9684,0.9726,0.9726,0.9726,0.9726,0.9726,0.9374,0.9393,0.9421,0.9449,0.947,0.9493,0.9513,0.9532,0.9559,0.9592,0.9602,0.9635,0.9662,0.9706,0.9723,0.9749,0.9748,0.9755,0.9757,0.9759,0.9759,0.9717,0.9755,0.9755,0.9755,0.9755,0.9755,0,0.9402,0.9421,0.9447,0.9481,0.9505,0.951,0.9537,0.9556,0.9585,0.961,0.9635,0.9671,0.9701,0.9726,0.9758,0.9774,0.9778,0.9781,0.978,0.9784,0.9759,0.9751,0.9778,0.9778,0.9777,0.9777,0.9777,0.9777,0.942,0.9452,0.9465,0.9508,0.9527,0.9559,0.9574,0.9596,0.9616,0.9656,0.9681,0.9697,0.9723,0.9756,0.9785,0.9791,0.9802,0.9805,0.9812,0.9788,0.9785,0.9783,0.9776,0.9807,0.9807,0.9835,0.9835,0.9836]},{"header":{"parameterUnit":"m.s-1","parameterCategory":1,"la1":30.2991,"la2":30.254,"lo1":-89.0895,"lo2":-89.0444,"dy":0.0017,"dx":0.0017,"nx":28,"ny":28,"refTime":"2023-04-17T15:00:00:Z","depth":0,"parameterNumber":3,"parameterNumberName":"V-component_of_WINDS"},"data":[0,0,0,0,0,0,0,0,0,0,0,0,0,0,0,0,0,0,0,0,0,0,0,0,0,0,0,0,0,0,0,0,0,0,0,0,0,0,0,0,0,0,0,0,0,0,0,0,0,0,0,0,0,0,0,0,0,0,-3.2449,-3.245,0,-3.249,-3.249,-3.2491,-3.2457,-3.2456,-3.2454,-3.2453,-3.2492,-3.2495,-3.2497,0,0,0,0,0,0,0,0,0,0,0,0,0,-3.2342,-3.2344,-3.2449,-3.245,-3.245,-3.249,-3.249,-3.2491,-3.2457,-3.2456,-3.2454,-3.2452,-3.2492,-3.2494,-3.2497,0,0,0,0,0,0,0,0,0,0,0,0,0,-3.2386,-3.2345,-3.2449,-3.2438,-3.2438,-3.249,-3.249,-3.2491,-3.2458,-3.2456,-3.2454,-3.2452,-3.2491,-3.2494,-3.2498,-3.2561,0,0,-3.2508,-3.251,0,0,0,0,0,0,0,0,-3.2384,-3.239,-3.2439,-3.2439,-3.2439,-3.2466,-3.2467,-3.2514,-3.2458,-3.245,-3.2453,-3.2451,-3.2485,-3.2489,-3.2501,-3.2563,-3.2565,-3.2509,-3.2511,-3.2512,-3.2513,0,0,0,0,0,0,0,-3.2381,-3.2388,-3.2465,-3.244,-3.244,-3.2431,-3.2435,-3.2476,-3.2479,-3.2451,-3.2448,-3.2454,-3.2485,-3.2498,-3.2502,-3.2565,-3.2508,-3.2512,-3.2514,-3.2515,-3.2684,-3.2686,0,0,0,0,0,0,-3.2379,-3.2386,-3.2464,-3.2466,-3.2405,-3.2435,-3.2439,-3.246,-3.2478,-3.2479,-3.2456,-3.2452,-3.2493,-3.2498,-3.2503,-3.2581,-3.2512,-3.2515,-3.2518,-3.2682,-3.2684,-3.2687,0,0,0,0,0,0,-3.2377,-3.2386,-3.2462,-3.2425,-3.2435,-3.2439,-3.2462,-3.2461,-3.2475,-3.2482,-3.2482,-3.2469,-3.2491,-3.2498,-3.2548,-3.2582,-3.2517,-3.252,-3.2679,-3.2682,-3.2686,-3.2736,0,0,0,0,0,0,-3.2374,-3.2385,-3.241,-3.2426,-3.2437,-3.2507,-3.2464,-3.2464,-3.2481,-3.2477,-3.2494,-3.2495,-3.249,-3.2543,-3.2551,-3.2585,-3.2523,-3.2676,-3.268,-3.2685,-3.2731,-3.2741,-3.2749,0,0,0,0,0,-3.237,-3.2421,-3.2411,-3.2421,-3.2467,-3.2509,-3.2514,-3.2508,-3.2484,-3.2509,-3.2514,-3.2495,-3.2576,-3.2548,-3.2557,-3.2593,-3.2674,-3.2679,-3.2684,-3.2727,-3.2739,-3.2749,0,0,0,0,0,0,-3.2407,-3.2423,-3.2412,-3.247,-3.2489,-3.2503,-3.2534,-3.252,-3.2545,-3.254,-3.2531,-3.2535,-3.2588,-3.2595,-3.2563,-3.2657,-3.2621,-3.2628,-3.2651,-3.2662,-3.267,-3.2668,-3.2526,0,0,0,0,0,-3.2422,-3.2455,-3.2467,-3.2517,-3.2527,-3.2529,-3.2547,-3.2541,-3.2559,-3.2566,-3.2574,-3.2592,-3.2622,-3.2642,-3.267,-3.2732,-3.2736,-3.2761,-3.277,-3.2777,-3.2784,-3.2819,-3.2831,-3.2704,-3.2704,-3.2704,0,0,-3.2454,-3.2466,-3.2487,-3.2525,-3.2538,-3.2573,-3.2536,-3.2573,-3.2598,-3.2571,-3.262,-3.2627,-3.2646,-3.2703,-3.2728,-3.271,-3.282,-3.2784,-3.2789,-3.2792,-3.2826,-3.2838,-3.2849,-3.2708,-3.2707,-3.2707,0,0,-3.2529,-3.2541,-3.2586,-3.26,-3.2622,-3.2623,-3.2634,-3.2651,-3.2655,-3.2703,-3.2685,-3.2714,-3.2765,-3.2781,-3.2795,-3.2878,-3.2863,-3.2887,-3.2934,-3.2969,-3.2979,-3.2987,-3.3019,-3.303,-3.2894,-3.2894,-3.2894,0,-3.2565,-3.2616,-3.261,-3.265,-3.2667,-3.2646,-3.2691,-3.2705,-3.2734,-3.2747,-3.2727,-3.2793,-3.2804,-3.2865,-3.2886,-3.2897,-3.291,-3.2886,-3.2978,-3.2987,-3.2995,-3.3025,-3.3037,-3.2897,-3.2897,-3.2897,-3.2896,0,-3.2661,-3.2697,-3.273,-3.2761,-3.2782,-3.2824,-3.2824,-3.2846,-3.2839,-3.2843,-3.2893,-3.2906,-3.2937,-3.2951,-3.2943,-3.3012,-3.3,-3.2979,-3.2943,-3.301,-3.3038,-3.305,-3.2902,-3.2901,-3.29,-3.2899,0,0,-3.276,-3.2788,-3.28,-3.2815,-3.2838,-3.2866,-3.2907,-3.2939,-3.2959,-3.298,-3.3016,-3.306,-3.3042,-3.3058,-3.3052,-3.3082,-3.315,-3.3057,-3.3058,-3.3076,-3.3229,-3.3246,-3.3259,-3.3139,-3.3141,-3.3143,-3.3228,0,-3.2838,-3.2912,-3.2908,-3.2977,-3.3011,-3.2992,-3.3029,-3.3047,-3.3052,-3.3081,-3.3085,-3.3119,-3.309,-3.3101,-3.313,-3.3136,-3.3181,-3.3129,-3.3173,-3.3175,-3.3171,-3.3274,-3.3291,-3.3371,-3.3239,-3.324,-3.3242,0,-3.2938,-3.2965,-3.3038,-3.3058,-3.3072,-3.3105,-3.3135,-3.3164,-3.3184,-3.3185,-3.3205,-3.3195,-3.3237,-3.32,-3.3259,-3.3224,-3.3241,-3.3247,-3.325,-3.3255,-3.3213,-3.3283,-3.3396,-3.3409,-3.3259,-3.3257,-3.3256,0,-3.3006,-3.306,-3.3111,-3.3124,-3.3148,-3.3172,-3.3183,-3.3202,-3.3222,-3.3247,-3.3261,-3.329,-3.3307,-3.3331,-3.3329,-3.3301,-3.3389,-3.3351,-3.3393,-3.3393,-3.3413,-3.3412,-3.3532,-3.3421,-3.3421,-3.3421,-3.3421,0,-3.3094,-3.314,-3.3142,-3.3174,-3.3226,-3.3221,-3.3271,-3.328,-3.3297,-3.333,-3.3314,-3.3346,-3.334,-3.3372,-3.337,-3.3421,-3.3428,-3.3431,-3.343,-3.3433,-3.3433,-3.3446,-3.3441,-3.3424,-3.3424,-3.3423,-3.3422,0,-3.3179,-3.3182,-3.3237,-3.3256,-3.3262,-3.3299,-3.3316,-3.3346,-3.335,-3.3392,-3.3402,-3.3408,-3.3444,-3.3445,-3.3485,-3.3485,-3.3547,-3.3539,-3.3541,-3.354,-3.3582,-3.3579,-3.3716,-3.3734,-3.361,-3.3611,-3.3612,0,-3.3235,-3.3271,-3.3295,-3.3317,-3.333,-3.3365,-3.3386,-3.3382,-3.3405,-3.3432,-3.346,-3.3495,-3.3523,-3.3583,-3.359,-3.3622,-3.3616,-3.3662,-3.3621,-3.3624,-3.3619,-3.3618,-3.3623,-3.367,-3.3672,-3.3673,-3.3674,0,-3.3337,-3.3337,-3.3369,-3.3402,-3.3428,-3.3453,-3.3477,-3.3495,-3.3495,-3.3521,-3.3559,-3.3581,-3.3624,-3.366,-3.3692,-3.3702,-3.3689,-3.3686,-3.3698,-3.3703,-3.3703,-3.3706,-3.3565,-3.3684,-3.3683,-3.3682,-3.3681,-3.3681,-3.3411,-3.3442,-3.3465,-3.3501,-3.3519,-3.3542,-3.3572,-3.358,-3.3613,-3.3649,-3.3644,-3.3687,-3.3708,-3.3749,-3.3763,-3.3796,-3.378,-3.3797,-3.3801,-3.3806,-3.3812,-3.3697,-3.3802,-3.3801,-3.3801,-3.3801,-3.3801,0,-3.3513,-3.3527,-3.356,-3.3595,-3.3624,-3.3609,-3.3635,-3.366,-3.3699,-3.372,-3.3749,-3.3793,-3.3829,-3.384,-3.3874,-3.3899,-3.3894,-3.3908,-3.3907,-3.391,-3.3823,-3.381,-3.3912,-3.3912,-3.3912,-3.3912,-3.3912,-3.3912,-3.357,-3.3623,-3.3627,-3.3689,-3.3703,-3.3746,-3.3762,-3.3784,-3.3801,-3.3852,-3.3882,-3.3889,-3.3907,-3.3943,-3.3975,-3.3977,-3.3991,-3.4009,-3.4009,-3.3927,-3.3916,-3.3905,-3.3894,-3.4011,-3.4012,-3.4094,-3.4095,-3.4095]}]]